1302393632985,0.806880
1302393692985,0.798706
1302393752985,0.800005
1302393812985,0.804092
1302393872985,0.800988
1302393932985,0.807403
1302393992985,0.807794
1302394052985,0.806552
1302394112985,0.807952
1302394172985,0.813076
1302394232985,0.811179
1302394292985,0.814275
1302394352985,0.809624
1302394412985,0.812388
1302394472985,0.813158
1302394532985,0.814172
1302394592985,0.809639
1302394652985,0.812873
1302394712985,0.808898
1302394772985,0.809594
1302394832985,0.807157
1302394892985,0.803657
1302394952985,0.803992
1302395012985,0.809244
1302395072985,0.802578
1302395132985,0.804393
1302395192985,0.809635
1302395252985,0.798914
1302395312985,0.798130
1302395372985,0.802725
1302395432985,0.795820
1302395492985,0.804421
1302395552985,0.800141
1302395612985,0.805358
1302395672985,0.801702
1302395732985,0.800983
1302395792985,0.801813
1302395852985,0.797993
1302395912985,0.804404
1302395972985,0.801778
1302396032985,0.805904
1302396092985,0.804948
1302396152985,0.799731
1302396212985,0.804121
1302396272985,0.802918
1302396332985,0.797740
1302396392985,0.800432
1302396452985,0.805233
1302396512985,0.795369
1302396572985,0.798278
1302396632985,0.799489
1302396692985,0.803943
1302396752985,0.805938
1302396812985,0.801360
1302396872985,0.808680
1302396932985,0.802088
1302396992985,0.801565
1302397052985,0.800686
1302397112985,0.797065
1302397172985,0.798905
1302397232997,0.803752
1302397292997,0.800189
1302397352997,0.800146
1302397412997,0.801845
1302397472997,0.795927
1302397532997,0.803927
1302397592997,0.799547
1302397652997,0.802444
1302397712997,0.805436
1302397772997,0.798518
1302397832997,0.804685
1302397892997,0.798922
1302397952997,0.790002
1302398012997,0.793421
1302398072997,0.798324
1302398132997,0.789125
1302398192997,0.791763
1302398252997,0.792367
1302398312997,0.799255
1302398372997,0.797002
1302398432997,0.797049
1302398492997,0.794396
1302398552997,0.790199
1302398612997,0.792455
1302398672997,0.795568
1302398732997,0.796611
1302398792997,0.792933
1302398852997,0.797276
1302398912997,0.791714
1302398972997,0.795714
1302399032997,0.799037
1302399092997,0.789121
1302399152997,0.796253
1302399212997,0.786037
1302399272997,0.793435
1302399332997,0.792835
1302399392997,0.792003
1302399452997,0.796669
1302399512997,0.798923
1302399572997,0.796575
1302399632997,0.799769
1302399692997,0.796730
1302399752997,0.799491
1302399812997,0.794534
1302399872997,0.800433
1302399932997,0.791186
1302399992997,0.797182
1302400052997,0.794024
1302400112997,0.792886
1302400172997,0.796760
1302400232997,0.793150
1302400292997,0.802320
1302400352997,0.796943
1302400412997,0.790415
1302400472997,0.791140
1302400532997,0.789990
1302400592997,0.799436
1302400652997,0.798598
1302400712997,0.801383
1302400772997,0.796506
1302400833008,0.793303
1302400893008,0.797763
1302400953008,0.793574
1302401013008,0.797731
1302401073008,0.797250
1302401133008,0.806064
1302401193008,0.791056
1302401253008,0.789636
1302401313008,0.798339
1302401373008,0.796213
1302401433008,0.795985
1302401493008,0.791271
1302401553008,0.787756
1302401613008,0.795211
1302401673008,0.787561
1302401733008,0.797766
1302401793008,0.790356
1302401853008,0.789061
1302401913008,0.791784
1302401973008,0.795658
1302402033008,0.799758
1302402093008,0.791716
1302402153008,0.799174
1302402213008,0.796082
1302402273008,0.793034
1302402333008,0.792394
1302402393008,0.796016
1302402453008,0.792248
1302402513008,0.803839
1302402573008,0.789555
1302402633008,0.796449
1302402693008,0.793786
1302402753008,0.798553
1302402813008,0.794740
1302402873008,0.795010
1302402933008,0.789637
1302402993008,0.794382
1302403053008,0.795933
1302403113008,0.794059
1302403173008,0.797474
1302403233008,0.795633
1302403293008,0.784888
1302403353008,0.790484
1302403413008,0.782496
1302403473008,0.788843
1302403533008,0.786158
1302403593008,0.795282
1302403653008,0.787429
1302403713008,0.798242
1302403773008,0.794607
1302403833008,0.790089
1302403893008,0.792372
1302403953008,0.794042
1302404013008,0.795062
1302404073008,0.802201
1302404133008,0.796260
1302404193008,0.795306
1302404253008,0.791003
1302404313008,0.794490
1302404373008,0.789430
1302404433020,0.790858
1302404493020,0.792697
1302404553020,0.788764
1302404613020,0.792938
1302404673020,0.787159
1302404733020,0.786979
1302404793020,0.801326
1302404853020,0.798241
1302404913020,0.792259
1302404973020,0.789248
1302405033020,0.797879
1302405093020,0.791083
1302405153020,0.793784
1302405213020,0.799970
1302405273020,0.796363
1302405333020,0.792894
1302405393020,0.794943
1302405453020,0.790953
1302405513020,0.789593
1302405573020,0.792953
1302405633020,0.799283
1302405693020,0.793302
1302405753020,0.789067
1302405813020,0.794734
1302405873020,0.788509
1302405933020,0.796094
1302405993020,0.794080
1302406053020,0.796069
1302406113020,0.797643
1302406173020,0.795007
1302406233020,0.792482
1302406293020,0.803764
1302406353020,0.802172
1302406413020,0.789934
1302406473020,0.805259
1302406533020,0.790320
1302406593020,0.795532
1302406653020,0.800767
1302406713020,0.798256
1302406773020,0.787702
1302406833020,0.793612
1302406893020,0.786972
1302406953020,0.792590
1302407013020,0.796254
1302407073020,0.790239
1302407133020,0.798450
1302407193020,0.794213
1302407253020,0.795533
1302407313020,0.791665
1302407373020,0.798653
1302407433020,0.786622
1302407493020,0.795954
1302407553020,0.792757
1302407613020,0.786648
1302407673020,0.786483
1302407733020,0.794874
1302407793020,0.790295
1302407853020,0.792501
1302407913020,0.795705
1302407973020,0.788660
1302408033032,0.785219
1302408093032,0.798356
1302408153032,0.791870
1302408213032,0.789093
1302408273032,0.797208
1302408333032,0.791533
1302408393032,0.794859
1302408453032,0.798459
1302408513032,0.792424
1302408573032,0.794400
1302408633032,0.798368
1302408693032,0.789781
1302408753032,0.790329
1302408813032,0.795283
1302408873032,0.793776
1302408933032,0.792863
1302408993032,0.793431
1302409053032,0.796186
1302409113032,0.788605
1302409173032,0.796914
1302409233032,0.800321
1302409293032,0.796102
1302409353032,0.800262
1302409413032,0.801005
1302409473032,0.804131
1302409533032,0.798153
1302409593032,0.802520
1302409653032,0.799302
1302409713032,0.796396
1302409773032,0.800202
1302409833032,0.799548
1302409893032,0.794992
1302409953032,0.796148
1302410013032,0.799176
1302410073032,0.800157
1302410133032,0.801012
1302410193032,0.799687
1302410253032,0.800603
1302410313032,0.798381
1302410373032,0.803028
1302410433032,0.810031
1302410493032,0.801499
1302410553032,0.797165
1302410613032,0.798150
1302410673032,0.802119
1302410733032,0.793330
1302410793032,0.809134
1302410853032,0.799794
1302410913032,0.801939
1302410973032,0.801638
1302411033032,0.806454
1302411093032,0.797389
1302411153032,0.794542
1302411213032,0.795917
1302411273032,0.796463
1302411333032,0.798798
1302411393032,0.796525
1302411453032,0.802131
1302411513032,0.803193
1302411573032,0.800779
1302411633043,0.801298
1302411693043,0.802088
1302411753043,0.793882
1302411813043,0.797172
1302411873043,0.797355
1302411933043,0.796786
1302411993043,0.798324
1302412053043,0.796248
1302412113043,0.794514
1302412173043,0.794439
1302412233043,0.793680
1302412293043,0.786759
1302412353043,0.789553
1302412413043,0.795866
1302412473043,0.787785
1302412533043,0.787249
1302412593043,0.800175
1302412653043,0.792063
1302412713043,0.792593
1302412773043,0.792326
1302412833043,0.790683
1302412893043,0.788800
1302412953043,0.795791
1302413013043,0.790644
1302413073043,0.792040
1302413133043,0.788366
1302413193043,0.789270
1302413253043,0.794669
1302413313043,0.792481
1302413373043,0.795494
1302413433043,0.793839
1302413493043,0.795386
1302413553043,0.795548
1302413613043,0.790384
1302413673043,0.790142
1302413733043,0.800007
1302413793043,0.786671
1302413853043,0.794531
1302413913043,0.790393
1302413973043,0.790481
1302414033043,0.797758
1302414093043,0.789291
1302414153043,0.789459
1302414213043,0.786636
1302414273043,0.789538
1302414333043,0.797919
1302414393043,0.796538
1302414453043,0.793536
1302414513043,0.786608
1302414573043,0.783654
1302414633043,0.792351
1302414693043,0.787264
1302414753043,0.794785
1302414813043,0.785649
1302414873043,0.792578
1302414933043,0.791736
1302414993043,0.791247
1302415053043,0.783940
1302415113043,0.790648
1302415173043,0.792548
1302415233054,0.788110
1302415293054,0.789596
1302415353054,0.791914
1302415413054,0.784562
1302415473054,0.793199
1302415533054,0.787193
1302415593054,0.784488
1302415653054,0.779694
1302415713054,0.779688
1302415773054,0.793390
1302415833054,0.788594
1302415893054,0.794813
1302415953054,0.786398
1302416013054,0.779449
1302416073054,0.786407
1302416133054,0.785030
1302416193054,0.795173
1302416253054,0.783605
1302416313054,0.787520
1302416373054,0.790045
1302416433054,0.785841
1302416493054,0.781906
1302416553054,0.788253
1302416613054,0.785791
1302416673054,0.781270
1302416733054,0.787888
1302416793054,0.794443
1302416853054,0.785725
1302416913054,0.786613
1302416973054,0.786050
1302417033054,0.782283
1302417093054,0.786140
1302417153054,0.795850
1302417213054,0.786500
1302417273054,0.787572
1302417333054,0.788194
1302417393054,0.788010
1302417453054,0.784102
1302417513054,0.785553
1302417573054,0.789501
1302417633054,0.788747
1302417693054,0.784319
1302417753054,0.784572
1302417813054,0.779840
1302417873054,0.780556
1302417933054,0.786075
1302417993054,0.777038
1302418053054,0.787395
1302418113054,0.788437
1302418173054,0.784051
1302418233054,0.782275
1302418293054,0.786202
1302418353054,0.787408
1302418413054,0.788732
1302418473054,0.785022
1302418533054,0.784304
1302418593054,0.785843
1302418653054,0.781052
1302418713054,0.775342
1302418773054,0.784348
1302418833066,0.783632
1302418893066,0.779621
1302418953066,0.782713
1302419013066,0.785345
1302419073066,0.782526
1302419133066,0.780442
1302419193066,0.774843
1302419253066,0.779247
1302419313066,0.787608
1302419373066,0.785539
1302419433066,0.780423
1302419493066,0.780387
1302419553066,0.786266
1302419613066,0.781170
1302419673066,0.785360
1302419733066,0.779705
1302419793066,0.780811
1302419853066,0.789053
1302419913066,0.785516
1302419973066,0.782574
1302420033066,0.778736
1302420093066,0.785127
1302420153066,0.786010
1302420213066,0.783170
1302420273066,0.788302
1302420333066,0.782668
1302420393066,0.777262
1302420453066,0.792036
1302420513066,0.784941
1302420573066,0.784728
1302420633066,0.777767
1302420693066,0.784585
1302420753066,0.786516
1302420813066,0.785887
1302420873066,0.786021
1302420933066,0.779487
1302420993066,0.781107
1302421053066,0.778704
1302421113066,0.775497
1302421173066,0.783185
1302421233066,0.790893
1302421293066,0.787631
1302421353066,0.779871
1302421413066,0.779082
1302421473066,0.787361
1302421533066,0.783663
1302421593066,0.785013
1302421653066,0.781394
1302421713066,0.780006
1302421773066,0.782826
1302421833066,0.784894
1302421893066,0.785626
1302421953066,0.782518
1302422013066,0.780060
1302422073066,0.780359
1302422133066,0.783602
1302422193066,0.778953
1302422253066,0.778270
1302422313066,0.784881
1302422373066,0.781159
1302422433077,0.783250
1302422493077,0.778809
1302422553077,0.783978
1302422613077,0.783020
1302422673077,0.776976
1302422733077,0.775542
1302422793077,0.776861
1302422853077,0.786232
1302422913077,0.782820
1302422973077,0.788195
1302423033077,0.783451
1302423093077,0.781418
1302423153077,0.781321
1302423213077,0.778781
1302423273077,0.778703
1302423333077,0.781595
1302423393077,0.786136
1302423453077,0.775789
1302423513077,0.773546
1302423573077,0.780055
1302423633077,0.792085
1302423693077,0.770080
1302423753077,0.786600
1302423813077,0.777671
1302423873077,0.781972
1302423933077,0.784099
1302423993077,0.785487
1302424053077,0.778512
1302424113077,0.781782
1302424173077,0.781127
1302424233077,0.792121
1302424293077,0.780272
1302424353077,0.784360
1302424413077,0.788314
1302424473077,0.778412
1302424533077,0.783559
1302424593077,0.778176
1302424653077,0.776408
1302424713077,0.780205
1302424773077,0.773365
1302424833077,0.782606
1302424893077,0.789102
1302424953077,0.778162
1302425013077,0.781201
1302425073077,0.783604
1302425133077,0.779436
1302425193077,0.777249
1302425253077,0.780001
1302425313077,0.782925
1302425373077,0.774381
1302425433077,0.776062
1302425493077,0.777921
1302425553077,0.774012
1302425613077,0.783018
1302425673077,0.779264
1302425733077,0.778235
1302425793077,0.781778
1302425853077,0.781432
1302425913077,0.785912
1302425973077,0.770471
1302426033088,0.780525
1302426093088,0.773774
1302426153088,0.776410
1302426213088,0.773923
1302426273088,0.777893
1302426333088,0.781984
1302426393088,0.774411
1302426453088,0.775744
1302426513088,0.777982
1302426573088,0.775489
1302426633088,0.784596
1302426693088,0.779832
1302426753088,0.780812
1302426813088,0.775577
1302426873088,0.778220
1302426933088,0.776288
1302426993088,0.781847
1302427053088,0.786448
1302427113088,0.787142
1302427173088,0.777834
1302427233088,0.780301
1302427293088,0.773466
1302427353088,0.778234
1302427413088,0.778363
1302427473088,0.778720
1302427533088,0.779643
1302427593088,0.772288
1302427653088,0.771060
1302427713088,0.775035
1302427773088,0.778883
1302427833088,0.776140
1302427893088,0.774410
1302427953088,0.782025
1302428013088,0.784870
1302428073088,0.781235
1302428133088,0.780886
1302428193088,0.773462
1302428253088,0.777695
1302428313088,0.778636
1302428373088,0.774782
1302428433088,0.771556
1302428493088,0.772881
1302428553088,0.779028
1302428613088,0.780033
1302428673088,0.774527
1302428733088,0.774654
1302428793088,0.777526
1302428853088,0.780129
1302428913088,0.778354
1302428973088,0.779500
1302429033088,0.773133
1302429093088,0.772533
1302429153088,0.777392
1302429213088,0.778918
1302429273088,0.779252
1302429333088,0.775041
1302429393088,0.778003
1302429453088,0.775019
1302429513088,0.777401
1302429573088,0.768214
1302429633099,0.775517
1302429693099,0.777672
1302429753099,0.776164
1302429813099,0.773744
1302429873099,0.774428
1302429933099,0.773215
1302429993099,0.775301
1302430053099,0.774503
1302430113099,0.780762
1302430173099,0.781582
1302430233099,0.777109
1302430293099,0.781173
1302430353099,0.776965
1302430413099,0.778008
1302430473099,0.779766
1302430533099,0.776256
1302430593099,0.783906
1302430653099,0.771004
1302430713099,0.781168
1302430773099,0.781313
1302430833099,0.776634
1302430893099,0.787096
1302430953099,0.779210
1302431013099,0.782392
1302431073099,0.786650
1302431133099,0.780952
1302431193099,0.779824
1302431253099,0.786120
1302431313099,0.774911
1302431373099,0.782480
1302431433099,0.782191
1302431493099,0.781858
1302431553099,0.778305
1302431613099,0.774829
1302431673099,0.780018
1302431733099,0.781902
1302431793099,0.788564
1302431853099,0.782685
1302431913099,0.783930
1302431973099,0.778099
1302432033099,0.781845
1302432093099,0.783633
1302432153099,0.787491
1302432213099,0.790702
1302432273099,0.787450
1302432333099,0.778885
1302432393099,0.790776
1302432453099,0.780571
1302432513099,0.779684
1302432573099,0.786177
1302432633099,0.775932
1302432693099,0.787232
1302432753099,0.783641
1302432813099,0.783575
1302432873099,0.784647
1302432933099,0.780665
1302432993099,0.782649
1302433053099,0.780698
1302433113099,0.783917
1302433173099,0.784023
1302433233111,0.776009
1302433293111,0.780109
1302433353111,0.780445
1302433413111,0.785183
1302433473111,0.785096
1302433533111,0.786186
1302433593111,0.775008
1302433653111,0.783850
1302433713111,0.787242
1302433773111,0.786712
1302433833111,0.778030
1302433893111,0.784017
1302433953111,0.785664
1302434013111,0.781801
1302434073111,0.773393
1302434133111,0.779672
1302434193111,0.783057
1302434253111,0.779576
1302434313111,0.784801
1302434373111,0.778977
1302434433111,0.778982
1302434493111,0.787544
1302434553111,0.780146
1302434613111,0.783642
1302434673111,0.783046
1302434733111,0.786773
1302434793111,0.786334
1302434853111,0.783398
1302434913111,0.784246
1302434973111,0.786616
1302435033111,0.781011
1302435093111,0.789491
1302435153111,0.789811
1302435213111,0.777565
1302435273111,0.785501
1302435333111,0.788545
1302435393111,0.778805
1302435453111,0.780981
1302435513111,0.780087
1302435573111,0.784296
1302435633111,0.785226
1302435693111,0.781138
1302435753111,0.785463
1302435813111,0.786020
1302435873111,0.777905
1302435933111,0.777316
1302435993111,0.779535
1302436053111,0.783580
1302436113111,0.776201
1302436173111,0.783504
1302436233111,0.782386
1302436293111,0.780869
1302436353111,0.781855
1302436413111,0.783030
1302436473111,0.787172
1302436533111,0.780471
1302436593111,0.784590
1302436653111,0.780808
1302436713111,0.782043
1302436773111,0.780957
1302436833122,0.777456
1302436893122,0.784919
1302436953122,0.785583
1302437013122,0.777148
1302437073122,0.783420
1302437133122,0.784679
1302437193122,0.777925
1302437253122,0.783267
1302437313122,0.774596
1302437373122,0.777912
1302437433122,0.781999
1302437493122,0.778868
1302437553122,0.779927
1302437613122,0.784593
1302437673122,0.781811
1302437733122,0.781996
1302437793122,0.777355
1302437853122,0.780238
1302437913122,0.775707
1302437973122,0.777684
1302438033122,0.783424
1302438093122,0.781788
1302438153122,0.789780
1302438213122,0.779772
1302438273122,0.780147
1302438333122,0.773641
1302438393122,0.781882
1302438453122,0.775982
1302438513122,0.778424
1302438573122,0.780763
1302438633122,0.781616
1302438693122,0.776270
1302438753122,0.784825
1302438813122,0.779636
1302438873122,0.785574
1302438933122,0.784810
1302438993122,0.783697
1302439053122,0.787924
1302439113122,0.780929
1302439173122,0.783431
1302439233122,0.780161
1302439293122,0.777739
1302439353122,0.781246
1302439413122,0.773108
1302439473122,0.775504
1302439533122,0.772173
1302439593122,0.773829
1302439653122,0.782064
1302439713122,0.777231
1302439773122,0.771440
1302439833122,0.778395
1302439893122,0.774247
1302439953122,0.779440
1302440013122,0.780404
1302440073122,0.774706
1302440133122,0.778341
1302440193122,0.780123
1302440253122,0.782180
1302440313122,0.779268
1302440373122,0.781080
1302440433133,0.779728
1302440493133,0.779897
1302440553133,0.780836
1302440613133,0.780902
1302440673133,0.782507
1302440733133,0.780034
1302440793133,0.779269
1302440853133,0.780477
1302440913133,0.774111
1302440973133,0.782875
1302441033133,0.777784
1302441093133,0.776424
1302441153133,0.774054
1302441213133,0.785948
1302441273133,0.782836
1302441333133,0.788399
1302441393133,0.781721
1302441453133,0.776598
1302441513133,0.778751
1302441573133,0.775892
1302441633133,0.783740
1302441693133,0.782572
1302441753133,0.827271
1302441813133,0.788116
1302442953133,0.779319
1302443013133,0.808563
1302443073133,0.775220
1302443133133,0.779840
1302443193133,0.776229
1302443253133,0.775739
1302443313133,0.783746
1302443373133,0.777301
1302443433133,0.780750
1302443493133,0.779686
1302443553133,0.783458
1302443613133,0.776437
1302443673133,0.774006
1302443733133,0.780720
1302443793133,0.788676
1302443853133,0.782012
1302443913133,0.780637
1302443973133,0.783236
1302444033144,0.782575
1302444093144,0.784910
1302444153144,0.783048
1302444213144,0.778221
1302444273144,0.780576
1302444333144,0.774387
1302444393144,0.783197
1302444453144,0.781289
1302444513144,0.774382
1302444573144,0.782961
1302444633144,0.783073
1302444693144,0.777605
1302444753144,0.779452
1302444813144,0.783194
1302444873144,0.784675
1302444933144,0.778778
1302444993144,0.780594
1302445053144,0.786783
1302445113144,0.785373
1302445173144,0.783661
1302445233144,0.788372
1302445293144,0.784605
1302445353144,0.790030
1302445413144,0.784876
1302445473144,0.785028
1302445533144,0.785130
1302445593144,0.785979
1302445653144,0.797879
1302445713144,0.781194
1302445773144,0.786411
1302445833144,0.786902
1302445893144,0.787338
1302445953144,0.771596
1302446013144,0.785964
1302446073144,0.778086
1302446133144,0.781685
1302446193144,0.779913
1302446253144,0.783159
1302446313144,0.782574
1302446373144,0.780869
1302446433144,0.787753
1302446493144,0.780641
1302446553144,0.776237
1302446613144,0.784542
1302446673144,0.778210
1302446733144,0.777383
1302446793144,0.782072
1302446853144,0.781506
1302446913144,0.775552
1302446973144,0.785283
1302447033144,0.777360
1302447093144,0.777107
1302447153144,0.773436
1302447213144,0.778363
1302447273144,0.783363
1302447333144,0.782333
1302447393144,0.782412
1302447453144,0.779087
1302447513144,0.782953
1302447573144,0.778782
1302447633154,0.791823
1302447693154,0.784893
1302447753154,0.781584
1302447813154,0.787518
1302447873154,0.777835
1302447933154,0.779013
1302447993154,0.785927
1302448053154,0.783633
1302448113154,0.777809
1302448173154,0.775426
1302448233154,0.784271
1302448293154,0.775868
1302448353154,0.778721
1302448413154,0.782635
1302448473154,0.783201
1302448533154,0.786952
1302448593154,0.780451
1302448653154,0.779816
1302448713154,0.785139
1302448773154,0.782908
1302448833154,0.781374
1302448893154,0.784770
1302448953154,0.776601
1302449013154,0.770527
1302449073154,0.780703
1302449133154,0.786069
1302449193154,0.775485
1302449253154,0.777283
1302449313154,0.783250
1302449373154,0.781993
1302449433154,0.775143
1302449493154,0.780519
1302449553154,0.778787
1302449613154,0.774133
1302449673154,0.780225
1302449733154,0.776037
1302449793154,0.775374
1302449853154,0.777744
1302449913154,0.776397
1302449973154,0.781203
1302450033154,0.776073
1302450093154,0.771502
1302450153154,0.781115
1302450213154,0.781765
1302450273154,0.773505
1302450333154,0.783834
1302450393154,0.771292
1302450453154,0.778120
1302450513154,0.775244
1302450573154,0.782805
1302450633154,0.778621
1302450693154,0.775328
1302450753154,0.776153
1302450813154,0.778014
1302450873154,0.782725
1302450933154,0.778641
1302450993154,0.773270
1302451053154,0.782778
1302451113154,0.781341
1302451173154,0.783826
1302451233165,0.771000
1302451293165,0.780064
1302451353165,0.780286
1302451413165,0.775293
1302451473165,0.778892
1302451533165,0.781891
1302451593165,0.775504
1302451653165,0.783044
1302451713165,0.785163
1302451773165,0.792189
1302451833165,0.785338
1302451893165,0.788653
1302451953165,0.794667
1302452013165,0.791937
1302452073165,0.796254
1302452133165,0.791727
1302452193165,0.797486
1302452253165,0.801873
1302452313165,0.796653
1302452373165,0.791798
1302452433165,0.799659
1302452493165,0.801048
1302452553165,0.798720
1302452613165,0.798251
1302452673165,0.794380
1302452733165,0.800304
1302452793165,0.791976
1302452853165,0.794213
1302452913165,0.795874
1302452973165,0.788826
1302453033165,0.791501
1302453093165,0.791027
1302453153165,0.789475
1302453213165,0.790884
1302453273165,0.789506
1302453333165,0.789785
1302453393165,0.791402
1302453453165,0.794130
1302453513165,0.784960
1302453573165,0.780648
1302453633165,0.787225
1302453693165,0.785912
1302453753165,0.784103
1302453813165,0.785648
1302453873165,0.786033
1302453933165,0.783479
1302453993165,0.777805
1302454053165,0.782152
1302454113165,0.780768
1302454173165,0.782266
1302454233165,0.789552
1302454293165,0.778867
1302454353165,0.782876
1302454413165,0.791741
1302454473165,0.783372
1302454533165,0.794654
1302454593165,0.790693
1302454653165,0.786711
1302454713165,0.787367
1302454773165,0.780456
1302454833176,0.784340
1302454893176,0.785484
1302454953176,0.783279
1302455013176,0.783452
1302455073176,0.790888
1302455133176,0.781771
1302455193176,0.784309
1302455253176,0.783596
1302455313176,0.787034
1302455373176,0.787123
1302455433176,0.775995
1302455493176,0.786897
1302455553176,0.784404
1302455613176,0.786496
1302455673176,0.781599
1302455733176,0.784381
1302455793176,0.786106
1302455853176,0.783524
1302455913176,0.784235
1302455973176,0.785892
1302456033176,0.784640
1302456093176,0.781534
1302456153176,0.788092
1302456213176,0.790116
1302456273176,0.783859
1302456333176,0.784416
1302456393176,0.784466
1302456453176,0.787582
1302456513176,0.783290
1302456573176,0.781476
1302456633176,0.778384
1302456693176,0.787625
1302456753176,0.795931
1302456813176,0.795975
1302456873176,0.790542
1302456933176,0.789664
1302456993176,0.781852
1302457053176,0.789093
1302457113176,0.789628
1302457173176,0.790273
1302457233176,0.787558